TITAN 3C TRANSTAGE DEB, 34170

Orbit data source: Space-Track

TITAN 3C TRANSTAGE DEB, 34170 is space debris in HEO originally from a launch on Tue, 21 Dec 1965 UTC launched from the Air Force Eastern Test Range (AFETR). Debris objects in space refer to the collection of defunct objects orbiting the Earth. Examples of debris include non-operational satellites, rocket bodies, and fragments generated from explosions, collisions, or faulty payload assembly.

Loading next visibility...
Identifier
34170, 1965-108DD
Orbit
HEO
Country
Flag of USUS
Related business
Manufacturer
Unknown
Mission
Spacecraft
Bus & Motor
Unknown
Mass
Unknown
Launch date (UTC)
1965-12-21 (60 years ago)
Launch vehicle
Unknown
Launch site
Air Force Eastern Test Range (AFETR)
Object type
Payload
Rocket body
Debris
Shape & HBR
Unknown shape, 0.1 m
Radar Cross Section
Medium (>0.1 m² and <1 m²)

Expand to show TLE details & history
Last TLE update: 2 weeks ago

TLE from 2 weeks ago
0 TITAN 3C TRANSTAGE DEB
1 34170U 65108DD  26147.42703980 -.00000517  00000-0 -22151-2 0  9996
2 34170  25.5382  97.2597 5794452 192.6056 142.3293  4.07739548 79328
Epoch: 2026-05-27T10:14Z
TLE epoch observation values (Epoch: 2026-05-27T10:14:56.238Z)
Latitude
-0.00002°
Longitude
58.51926°
Altitude
18,927.519 km
Speed
2.724 km/s
True Right ascension
06h 28m 57s
True Declination
0° 00' 00"
Sunlit
Object was in daylight at epoch
Visualization orbit readout
Latitude
Unknown
Longitude
Unknown
Altitude
Unknown
Speed
Unknown
Apparent Right ascension
Unknown
Apparent Declination
Unknown
Sunlit
N/A
Visualization observer readout
Local Sidereal Time
19:08:21
Azimuth
Unknown
Elevation
Unknown
Doppler factor
Unknown
Orbital elements
Apogee altitude
19,768.217 km
Perigee altitude
583.785 km
Semi-major axis
16,554.138 km
Eccentricity
0.57945
Inclination
25.5382°
RAAN
97.2597°
Arg. of periapsis
192.6056°
True anomaly
167.4232°
Mean anomaly
142.3293°
Eccentric anomaly
155.8907°
Mean motion
1.01902 °/min
Orbital period
353.28 mins
BSTAR
-0.0022151
Loading maneuver chart data...
Computing Atmospheric mass density...

Documentation

Showing up to 5 results
|